Theta_e
312 313 314 315 315 315 315 321 321 322 322 321 320 319 320 321 323 323 322 322 321 321 321 321 322 322 315 305 306 310 323 322 309 306 302 299 298 296 294 295 295 293 293 295 296 295 295
311 312 313 315 314 314 315 320 321 322 322 321 319 319 320 321 322 322 321 321 321 320 320 321 322 321 308 297 308 309 308 306 305 303 300 300 298 298 294 293 293 293 294 295 295 294 294
310 313 313 313 314 314 315 320 321 322 322 320 319 319 319 320 321 321 321 320 320 320 320 320 322 313 303 300 306 306 306 304 305 303 300 300 299 297 295 293 295 293 291 291 293 293 293
309 311 312 313 313 313 317 320 321 322 320 319 319 318 319 319 319 320 320 319 320 320 320 321 322 307 298 307 306 305 305 302 303 303 302 301 300 298 295 295 292 289 288 287 289 293 293
308 309 310 313 312 311 314 317 320 321 319 318 318 317 318 318 319 319 319 319 319 320 320 321 307 299 292 311 302 304 303 302 301 302 302 302 299 294 292 289 286 287 283 283 286 292 291
306 307 308 310 312 312 313 314 319 320 319 318 317 317 317 318 318 318 319 319 319 317 314 313 303 294 299 300 303 303 302 302 299 300 298 297 293 289 287 286 282 283 282 283 283 288 289
304 305 306 307 309 311 310 312 318 319 318 317 317 317 317 318 318 318 317 309 297 295 297 295 294 293 298 303 303 300 302 300 297 295 289 290 288 286 288 286 285 284 283 283 285 289 289
303 303 304 305 306 309 309 311 311 318 318 317 317 317 317 318 318 319 305 295 296 298 291 297 297 300 303 302 296 297 301 295 293 287 289 288 285 289 289 287 286 285 284 284 287 289 288
301 302 302 302 303 306 308 309 309 311 315 316 316 317 317 318 319 314 306 303 308 304 291 294 298 299 301 301 296 297 298 293 290 288 286 285 287 290 288 286 286 283 284 284 285 286 285
301 302 301 301 302 304 307 306 308 308 309 310 313 316 317 318 313 312 307 311 311 305 287 289 293 296 301 299 294 300 298 294 290 287 287 286 288 288 286 285 286 283 287 286 286 283 280
302 302 301 300 300 302 304 306 306 306 307 308 309 311 313 318 309 309 310 313 310 299 277 291 292 300 299 294 294 295 298 294 289 288 288 285 286 287 285 286 287 284 288 286 284 283 282
305 304 302 299 299 301 304 306 306 305 305 306 307 308 313 313 313 310 313 311 304 286 277 288 292 292 292 292 292 295 295 295 293 290 289 287 290 289 288 288 288 289 286 284 284 282 277
305 305 304 300 299 299 302 304 305 306 306 305 305 307 308 310 308 311 311 303 286 277 288 286 287 290 289 288 290 290 290 288 286 282 282 285 286 289 290 287 289 285 283 278 277 276 276
305 306 305 303 300 300 300 301 303 304 306 304 304 304 305 307 309 311 305 292 275 283 284 289 289 289 286 290 288 289 288 286 287 286 283 282 281 288 290 288 286 284 283 279 274 273 276
303 304 305 305 303 301 300 300 301 302 305 303 302 300 301 304 309 310 300 284 282 284 290 287 287 285 284 287 289 288 287 288 288 287 283 282 281 288 288 289 290 285 281 284 277 267 274
302 302 304 305 305 303 302 300 300 301 303 302 297 296 297 305 309 306 295 286 286 291 291 290 283 286 282 284 286 285 286 288 288 289 288 287 281 286 287 289 288 285 287 281 278 270 270
299 301 302 304 304 305 304 302 301 299 303 301 293 290 297 304 307 296 288 286 290 295 294 290 287 285 284 285 285 285 286 286 290 289 288 287 285 283 286 285 284 284 283 282 282 280 274
299 300 301 302 303 304 305 304 301 300 302 297 289 284 296 303 288 286 289 292 295 293 295 295 292 289 286 286 285 285 285 287 291 291 286 288 286 281 283 286 286 284 284 284 279 276 275
299 299 300 301 302 304 304 305 303 300 301 292 286 286 296 300 283 284 287 292 293 292 293 294 292 292 290 287 284 286 287 290 291 291 289 289 284 278 282 285 285 283 283 283 282 282 277
298 299 299 300 301 302 304 304 304 302 302 292 285 282 287 292 291 288 286 288 290 295 294 295 294 295 291 288 291 286 287 291 291 290 295 293 284 282 280 281 284 282 283 283 284 280 279
297 297 298 299 300 301 303 304 305 303 303 292 285 282 284 282 285 288 291 290 288 289 295 296 292 292 291 287 288 287 289 289 291 295 291 290 282 282 283 283 283 283 283 283 283 285 281
296 297 297 298 299 300 301 303 304 304 303 289 283 282 284 282 283 287 289 288 288 290 292 290 289 292 292 290 290 288 289 289 289 290 289 289 280 284 281 285 285 283 284 285 286 283 282
296 296 297 297 298 299 300 302 303 304 300 287 285 286 284 283 282 286 286 288 289 291 293 294 293 291 291 292 294 295 295 295 294 291 289 287 283 278 274 283 284 278 284 284 285 285 286
295 296 296 297 297 298 299 300 302 303 300 291 289 286 279 274 281 283 284 288 288 290 288 291 294 290 293 295 296 295 292 292 292 292 293 287 285 283 280 281 275 284 284 288 288 288 288
295 295 295 296 296 297 298 299 300 302 303 293 289 286 279 270 281 281 282 284 286 287 286 287 288 290 294 292 286 285 284 285 285 287 291 292 288 282 280 281 281 282 283 285 286 286 290
294 294 295 295 296 296 297 298 299 300 301 297 292 288 284 275 276 284 281 283 279 281 282 283 285 287 289 287 284 280 279 283 281 281 286 291 290 287 280 278 277 282 284 288 287 280 287
294 294 294 294 295 296 296 297 298 299 300 298 294 294 287 277 281 283 278 280 283 280 280 278 284 285 287 282 279 278 277 278 280 279 281 284 284 282 281 277 278 281 283 285 280 281 281
293 293 294 294 294 295 296 296 297 298 298 297 293 295 289 282 281 284 285 281 280 280 278 279 283 283 281 281 280 276 276 277 274 276 284 283 282 279 280 278 278 282 281 282 283 282 283
293 293 293 293 294 294 295 296 296 297 298 297 290 296 294 286 285 287 286 286 286 286 282 275 280 280 284 279 277 274 272 266 266 270 277 279 284 282 284 283 282 281 282 283 285 284 284
Wind_Speed
14 17 16 12 11 12 22 18 17 20 21 17 15 13 12 11 11 12 11 10 9 7 6 8 7 10 7 4 8 2 5 8 7 7 8 7 5 5 8 6 4 4 3 4 4 6 5
15 16 17 14 15 15 21 16 20 21 20 18 16 15 13 12 11 12 11 9 8 7 6 6 10 9 4 5 1 5 7 4 6 5 6 6 8 5 8 5 3 3 5 4 4 3 3
15 19 17 15 14 20 23 16 21 22 21 19 17 15 15 13 11 10 10 10 9 7 7 7 8 4 4 8 2 4 6 3 6 6 6 3 6 5 5 7 3 6 6 2 4 1 2
15 17 22 17 14 20 21 13 19 23 22 19 17 17 15 13 11 9 8 7 7 7 6 7 8 3 5 1 3 4 4 3 3 4 5 4 6 9 4 5 7 5 6 4 1 2 2
15 16 20 22 16 20 23 3 15 21 20 19 18 18 15 13 11 10 9 8 7 5 5 8 3 4 3 3 3 2 2 7 4 4 6 5 6 5 4 7 5 6 4 4 1 0 2
13 15 17 22 21 21 26 24 13 20 20 20 18 16 15 13 11 10 8 7 7 6 4 2 0 3 2 5 4 4 1 5 5 6 5 7 6 5 4 5 8 7 5 1 3 2 2
11 11 15 18 22 18 19 22 3 20 21 19 18 16 15 14 12 12 8 5 5 3 1 5 5 2 4 2 3 2 2 5 4 9 5 2 6 8 11 5 4 7 5 5 1 1 2
9 9 12 14 19 21 17 20 24 12 19 18 17 16 14 13 13 11 5 3 5 7 5 2 4 2 3 3 6 0 3 5 5 5 4 6 4 5 10 6 7 5 6 3 2 2 3
7 5 11 14 13 17 13 16 18 22 19 10 14 17 16 15 13 7 5 3 1 4 6 2 3 4 3 3 4 8 5 4 6 6 3 7 2 10 7 5 7 2 7 5 4 2 3
4 5 6 11 11 12 15 12 16 19 17 15 13 7 16 16 6 5 3 5 1 1 5 3 4 3 3 5 4 1 1 5 3 7 8 5 2 8 8 5 6 5 4 7 7 5 3
6 5 4 7 8 10 12 8 12 14 15 13 12 8 4 12 6 7 5 6 3 4 6 3 2 1 2 4 6 1 1 4 9 6 7 5 8 8 5 6 6 3 5 6 4 5 4
8 8 4 1 4 6 10 8 9 7 11 12 13 9 4 4 2 3 5 6 4 5 6 6 4 7 7 3 2 3 3 7 4 7 6 3 1 2 4 5 2 11 8 9 5 3 1
9 9 7 4 2 2 4 8 12 10 10 13 13 9 3 1 4 2 4 4 5 6 4 7 7 6 5 5 3 3 7 7 8 8 4 3 1 1 4 9 7 4 6 3 3 3 6
12 13 6 7 3 2 3 4 7 8 6 7 9 7 3 2 1 2 3 5 5 5 6 3 5 8 6 7 1 3 8 7 2 7 5 8 3 7 3 6 10 7 6 7 9 5 2
11 13 11 7 7 4 3 2 4 7 9 7 3 1 2 1 1 2 6 9 10 7 10 9 6 8 4 3 6 5 9 11 8 9 9 6 4 2 2 1 3 6 5 5 10 3 4
8 11 12 10 9 9 6 2 2 4 5 5 2 3 2 5 4 3 8 13 7 5 8 7 8 6 9 9 7 7 10 6 7 8 2 8 6 2 1 2 3 4 9 5 4 4 3
6 7 11 11 9 9 8 5 2 2 2 4 3 1 3 8 0 2 15 7 4 2 3 6 6 7 7 9 6 8 12 1 7 8 2 6 6 0 3 6 9 3 3 6 6 4 7
9 8 7 10 10 7 10 9 5 3 3 5 3 1 4 3 3 1 8 8 3 5 1 2 4 5 8 10 7 6 11 4 8 12 10 5 7 5 5 1 1 1 6 6 7 6 1
9 10 7 8 8 10 7 11 9 6 4 2 3 2 1 1 4 2 2 4 1 4 5 4 4 2 3 7 5 5 7 2 8 10 13 9 2 5 4 3 3 5 5 4 5 4 8
8 9 9 6 8 9 8 8 11 9 8 4 2 3 2 2 2 3 5 3 6 1 3 3 4 4 5 4 2 8 6 1 5 5 6 9 4 9 13 6 8 7 6 4 5 4 6
7 7 8 7 8 8 9 7 12 12 9 4 2 1 0 4 4 2 6 8 6 5 1 1 1 3 6 6 4 6 5 4 2 5 3 6 8 5 1 3 5 6 12 11 11 13 10
9 7 7 8 9 9 9 7 8 15 11 4 4 3 1 1 0 5 8 8 6 5 6 3 2 6 1 3 7 9 9 5 7 3 4 0 4 5 2 2 2 4 9 18 19 5 1
10 10 9 8 8 8 9 8 8 17 9 3 1 1 1 0 3 3 3 4 10 4 1 4 7 4 6 2 4 5 4 6 9 9 6 7 8 4 5 3 5 4 16 14 7 6 13
11 12 11 10 8 8 9 9 8 14 12 3 3 3 4 2 2 3 1 3 4 8 5 3 6 6 3 4 3 6 8 7 6 6 4 8 7 3 4 4 6 7 1 10 16 8 7
10 12 12 11 11 9 10 8 8 7 20 4 2 4 4 2 2 4 4 2 5 4 3 1 2 1 5 5 3 4 2 2 3 2 2 1 7 5 6 9 4 3 6 9 11 12 12
10 10 10 12 12 11 10 10 8 7 7 7 3 3 3 6 6 4 5 5 4 3 3 2 1 4 3 3 2 5 6 5 5 2 3 1 6 7 4 6 14 4 4 5 5 6 8
11 11 12 11 12 12 12 11 9 9 10 3 2 5 3 3 3 5 4 6 5 3 3 2 4 1 1 3 3 3 3 1 8 10 6 5 3 9 5 3 7 5 5 3 8 7 2
14 12 12 12 12 13 13 13 13 12 9 5 2 7 4 2 4 5 4 5 3 2 5 3 4 2 1 2 4 3 3 4 4 1 5 7 8 4 3 3 7 7 4 10 5 2 4
18 16 14 14 13 13 13 15 15 12 12 9 1 6 4 1 2 2 4 2 1 5 7 3 2 3 5 5 1 4 2 2 4 4 2 2 4 8 7 5 2 3 2 3 4 7 5
Wind_Direction
351 349 341 326 343 339 329 240 219 204 186 168 171 178 207 189 186 187 186 180 187 176 187 152 147 143 137 208 251 147 130 142 118 133 155 137 148 143 132 137 110 99 145 79 88 88 86
351 345 337 337 333 333 324 247 212 205 179 174 171 180 193 184 177 186 178 173 181 164 175 179 149 143 138 216 166 138 136 155 154 126 158 148 175 160 103 127 111 113 99 106 59 76 70
359 357 339 339 336 344 323 222 205 192 178 171 169 174 183 171 172 183 180 168 166 178 172 170 171 173 134 233 74 143 149 198 172 140 143 160 145 85 133 108 145 123 85 68 40 15 73
1 356 355 352 353 1 346 192 192 183 175 170 167 174 168 160 164 179 175 162 165 177 171 183 176 171 211 155 131 145 152 92 94 79 105 110 99 99 81 112 37 75 61 121 310 133 352
360 360 358 359 2 1 351 329 203 182 169 168 166 162 157 154 164 181 166 166 171 183 169 170 139 155 236 120 129 182 164 142 103 65 55 79 65 92 62 96 53 18 163 177 171 211 110
352 359 2 359 11 12 4 1 230 186 164 161 155 157 153 155 173 175 165 165 172 131 120 201 25 80 139 206 149 145 37 110 103 108 67 54 55 85 51 95 190 172 144 164 195 199 80
343 1 1 2 3 18 8 5 314 174 156 157 152 155 152 167 172 174 144 117 95 78 238 195 182 148 120 154 91 63 143 96 87 56 139 35 99 179 186 140 141 133 117 132 185 3 150
341 10 1 2 1 3 15 11 8 179 151 151 152 148 160 168 171 177 122 194 186 159 143 187 108 98 134 205 101 124 132 117 108 135 110 52 201 190 113 122 119 114 119 132 82 71 130
337 20 9 357 7 360 25 16 21 27 66 101 155 156 168 163 161 143 172 215 171 167 115 198 182 143 173 162 126 179 134 120 114 114 146 146 213 137 119 136 114 98 146 169 142 123 74
325 326 4 6 1 1 6 35 30 30 41 58 80 127 166 152 151 145 192 163 187 210 84 201 212 218 133 157 69 309 69 130 84 151 144 144 116 133 120 163 130 158 166 123 122 92 198
270 299 329 14 0 359 6 48 56 38 28 42 57 59 106 168 139 169 167 143 134 33 133 179 192 43 101 150 141 248 310 65 151 143 125 203 155 141 145 192 158 164 113 110 95 95 84
274 276 284 343 10 5 6 57 81 75 57 23 24 31 126 171 91 117 130 120 76 64 213 164 143 172 115 29 61 114 104 51 128 90 42 86 50 106 151 75 73 150 82 53 51 86 66
358 284 244 235 320 31 358 43 48 43 36 24 18 19 84 222 121 143 150 97 87 171 184 182 183 170 119 146 105 138 159 150 148 111 138 60 20 24 137 82 2 85 94 44 6 351 209
1 7 253 213 239 265 284 28 46 62 85 67 348 20 353 53 50 154 122 85 139 181 189 114 131 115 153 148 118 142 128 159 227 93 126 146 206 174 187 166 171 182 154 157 187 193 202
2 360 358 244 205 222 285 6 1 48 34 31 9 339 116 10 333 179 144 191 199 188 140 136 81 125 155 205 131 146 192 192 182 179 141 134 199 46 57 123 139 191 193 157 104 21 66
357 349 353 350 224 220 218 266 78 35 31 64 41 12 305 317 286 141 173 207 193 164 124 153 144 162 161 181 140 175 167 188 189 184 193 196 110 10 272 150 51 163 159 81 8 125 228
301 339 340 343 342 228 223 225 201 88 45 103 68 325 326 327 354 133 196 188 152 215 118 140 145 139 160 165 159 188 191 197 189 169 127 137 103 246 154 212 167 137 158 63 113 134 159
311 298 310 327 335 316 229 213 199 175 112 53 110 100 303 318 102 135 201 161 126 145 173 123 105 110 161 158 145 179 195 234 175 143 159 195 116 145 193 327 336 132 170 155 141 210 213
304 297 303 311 320 326 285 217 189 174 115 110 103 128 343 320 170 172 296 174 114 133 168 161 129 145 174 158 139 192 176 203 160 158 165 185 168 88 31 5 343 208 202 139 107 93 187
294 295 278 303 309 319 315 226 190 178 147 94 130 130 8 46 302 165 135 180 165 51 130 137 122 108 121 130 24 168 154 178 178 183 124 117 136 172 197 199 131 174 171 177 132 151 160
277 289 290 292 299 312 312 270 203 178 164 89 33 165 350 187 198 246 157 174 182 151 246 195 98 197 161 132 118 158 133 127 59 163 104 151 178 140 68 162 135 157 171 173 194 206 179
257 268 274 286 279 297 311 279 217 179 149 80 140 156 27 117 24 180 186 184 191 163 165 177 211 162 170 176 192 175 138 170 177 185 140 352 168 117 85 58 155 161 179 191 207 187 137
256 256 255 262 276 277 294 288 264 187 140 126 186 331 148 6 155 178 197 167 193 130 53 148 147 115 181 90 30 61 41 110 151 145 147 138 133 112 223 136 102 321 209 187 193 189 180
264 259 258 254 250 264 279 288 266 209 169 128 168 120 100 212 191 188 84 135 161 181 167 146 138 135 167 158 114 48 46 61 70 66 113 141 112 92 122 127 184 250 25 192 194 191 182
249 254 254 251 254 254 254 273 275 272 189 139 149 135 130 186 183 174 174 131 134 83 85 169 140 148 155 91 102 121 68 42 352 33 159 263 132 116 169 207 310 227 197 156 170 230 193
270 265 258 258 247 246 250 251 250 269 269 203 145 115 125 123 240 170 160 172 159 127 107 215 132 303 87 94 152 191 175 143 165 120 352 116 53 177 157 173 205 214 181 160 113 279 174
269 260 258 256 257 243 247 245 238 229 275 220 146 144 86 134 249 151 165 172 140 102 106 143 138 231 344 133 141 182 182 338 160 157 158 158 154 188 170 186 280 231 159 177 145 239 152
258 258 253 253 252 254 241 241 245 224 227 284 105 172 152 145 270 193 184 134 88 116 142 190 104 208 99 143 154 183 151 192 88 194 163 164 154 164 123 130 254 158 73 163 193 69 138
249 247 246 246 241 247 246 243 234 241 209 212 168 153 128 156 284 275 256 267 310 191 132 341 150 170 170 111 148 113 154 47 146 209 243 192 180 167 174 204 336 200 96 119 148 134 157